Stündliche Wetter Labedz

Heute, 8 Mai, Samstag

Zeit Temperatur Niederschläge Wind Luftdruck Luftfeuchtigkeit
00:00 +2°C° 0 mm 3 m/S 750 mmHg 91%
01:00 +1°C° 0 mm 3 m/S 750 mmHg 95%
02:00 +1°C° 0 mm 3 m/S 750 mmHg 96%
03:00 0°C° 0 mm 4 m/S 750 mmHg 96%
04:00 0°C° 0 mm 4 m/S 751 mmHg 97%
05:00 +1°C° 0 mm 4 m/S 751 mmHg 93%
06:00 +3°C° 0 mm 4 m/S 752 mmHg 89%
07:00 +4°C° 0 mm 4 m/S 752 mmHg 85%
08:00 +5°C° 0.1 mm 4 m/S 752 mmHg 78%
09:00 +6°C° 0.1 mm 5 m/S 752 mmHg 71%
10:00 +8°C° 0.1 mm 5 m/S 752 mmHg 64%
11:00 +8°C° 0.2 mm 5 m/S 753 mmHg 62%
12:00 +8°C° 0.2 mm 6 m/S 753 mmHg 60%
13:00 +9°C° 0.2 mm 6 m/S 753 mmHg 58%
14:00 +9°C° 0.1 mm 6 m/S 753 mmHg 57%
15:00 +9°C° 0.1 mm 5 m/S 753 mmHg 56%
16:00 +9°C° 0.1 mm 5 m/S 753 mmHg 55%
17:00 +8°C° 0 mm 4 m/S 754 mmHg 59%
18:00 +8°C° 0 mm 2 m/S 754 mmHg 64%
19:00 +8°C° 0 mm 1 m/S 754 mmHg 69%
20:00 +7°C° 0 mm 1 m/S 754 mmHg 71%
21:00 +6°C° 0 mm 1 m/S 754 mmHg 73%
22:00 +4°C° 0 mm 2 m/S 754 mmHg 74%
23:00 +4°C° 0 mm 2 m/S 755 mmHg 77%

Morgen, 9 Mai, Sonntag

Zeit Temperatur Niederschläge Wind Luftdruck Luftfeuchtigkeit
00:00 +4°C° 0 mm 2 m/S 755 mmHg 79%
01:00 +3°C° 0 mm 3 m/S 755 mmHg 82%
02:00 +2°C° 0 mm 3 m/S 754 mmHg 83%
03:00 +2°C° 0 mm 3 m/S 754 mmHg 84%
04:00 +2°C° 0 mm 3 m/S 754 mmHg 84%
05:00 +4°C° 0 mm 4 m/S 754 mmHg 81%
06:00 +6°C° 0 mm 5 m/S 754 mmHg 77%
07:00 +7°C° 0 mm 5 m/S 753 mmHg 73%
08:00 +7°C° 0 mm 5 m/S 753 mmHg 73%
09:00 +8°C° 0 mm 5 m/S 753 mmHg 74%
10:00 +8°C° 0 mm 5 m/S 753 mmHg 75%
11:00 +10°C° 0 mm 5 m/S 753 mmHg 71%
12:00 +13°C° 0 mm 6 m/S 753 mmHg 67%
13:00 +14°C° 0 mm 6 m/S 753 mmHg 63%
14:00 +15°C° 0 mm 6 m/S 752 mmHg 63%
15:00 +17°C° 0 mm 5 m/S 752 mmHg 64%
16:00 +19°C° 0 mm 5 m/S 752 mmHg 64%
17:00 +17°C° 0 mm 4 m/S 752 mmHg 70%
18:00 +15°C° 0 mm 4 m/S 752 mmHg 77%
19:00 +13°C° 0 mm 4 m/S 752 mmHg 83%
20:00 +13°C° 0 mm 4 m/S 752 mmHg 85%
21:00 +12°C° 0 mm 4 m/S 752 mmHg 86%
22:00 +11°C° 0 mm 4 m/S 752 mmHg 88%
23:00 +11°C° 0 mm 4 m/S 752 mmHg 87%

übermorgen, 10 Mai, Montag

Zeit Temperatur Niederschläge Wind Luftdruck Luftfeuchtigkeit
00:00 +10°C° 0 mm 4 m/S 752 mmHg 86%
01:00 +8°C° 0 mm 4 m/S 752 mmHg 86%
02:00 +8°C° 0 mm 4 m/S 752 mmHg 86%
03:00 +8°C° 0 mm 4 m/S 752 mmHg 87%
04:00 +7°C° 0 mm 4 m/S 752 mmHg 88%
05:00 +10°C° 0 mm 4 m/S 752 mmHg 83%
06:00 +10°C° 0 mm 5 m/S 752 mmHg 79%
07:00 +13°C° 0 mm 5 m/S 752 mmHg 74%
08:00 +15°C° 0 mm 6 m/S 751 mmHg 69%
09:00 +16°C° 0 mm 7 m/S 751 mmHg 65%
10:00 +18°C° 0 mm 7 m/S 751 mmHg 60%
11:00 +20°C° 0 mm 7 m/S 751 mmHg 59%
12:00 +21°C° 0 mm 7 m/S 751 mmHg 57%
13:00 +21°C° 0 mm 7 m/S 750 mmHg 56%
14:00 +22°C° 0 mm 7 m/S 750 mmHg 58%
15:00 +22°C° 0 mm 7 m/S 750 mmHg 60%
16:00 +22°C° 0 mm 6 m/S 750 mmHg 62%
17:00 +21°C° 0 mm 6 m/S 750 mmHg 68%
18:00 +19°C° 0 mm 5 m/S 750 mmHg 74%
19:00 +17°C° 0 mm 5 m/S 750 mmHg 80%
20:00 +17°C° 0 mm 4 m/S 750 mmHg 83%
21:00 +15°C° 0 mm 4 m/S 751 mmHg 86%
22:00 +14°C° 0 mm 4 m/S 751 mmHg 89%
23:00 +14°C° 0 mm 4 m/S 751 mmHg 90%

11 Mai, Dienstag

Zeit Temperatur Niederschläge Wind Luftdruck Luftfeuchtigkeit
00:00 +13°C° 0 mm 4 m/S 750 mmHg 90%
01:00 +13°C° 0 mm 4 m/S 750 mmHg 91%
02:00 +12°C° 0 mm 5 m/S 750 mmHg 91%
03:00 +12°C° 0 mm 5 m/S 750 mmHg 91%
04:00 +12°C° 0 mm 5 m/S 750 mmHg 92%
05:00 +13°C° 0 mm 5 m/S 750 mmHg 88%
06:00 +14°C° 0 mm 6 m/S 749 mmHg 84%
07:00 +15°C° 0 mm 6 m/S 749 mmHg 80%
08:00 +16°C° 0 mm 7 m/S 749 mmHg 76%
09:00 +18°C° 0 mm 7 m/S 749 mmHg 71%
10:00 +21°C° 0 mm 7 m/S 749 mmHg 66%
11:00 +22°C° 0 mm 7 m/S 749 mmHg 64%
12:00 +23°C° 0 mm 7 m/S 748 mmHg 61%
13:00 +26°C° 0 mm 7 m/S 748 mmHg 59%
14:00 +26°C° 0 mm 7 m/S 748 mmHg 61%
15:00 +26°C° 0 mm 7 m/S 748 mmHg 62%
16:00 +26°C° 0 mm 7 m/S 747 mmHg 64%
17:00 +23°C° 0 mm 7 m/S 747 mmHg 67%
18:00 +22°C° 0 mm 7 m/S 747 mmHg 71%
19:00 +20°C° 0 mm 7 m/S 747 mmHg 74%
20:00 +18°C° 0 mm 7 m/S 748 mmHg 74%
21:00 +17°C° 0 mm 7 m/S 748 mmHg 75%
22:00 +16°C° 0 mm 7 m/S 748 mmHg 75%
23:00 +16°C° 0 mm 7 m/S 748 mmHg 75%

12 Mai, Mittwoch

Zeit Temperatur Niederschläge Wind Luftdruck Luftfeuchtigkeit
00:00 +15°C° 0 mm 7 m/S 748 mmHg 74%
01:00 +14°C° 0 mm 7 m/S 748 mmHg 74%
02:00 +13°C° 0 mm 6 m/S 748 mmHg 73%
03:00 +11°C° 0 mm 6 m/S 748 mmHg 71%
04:00 +11°C° 0 mm 6 m/S 748 mmHg 70%
05:00 +11°C° 0 mm 6 m/S 748 mmHg 70%
06:00 +12°C° 0 mm 7 m/S 748 mmHg 71%
07:00 +12°C° 0 mm 7 m/S 748 mmHg 71%
08:00 +15°C° 0 mm 7 m/S 748 mmHg 67%
09:00 +17°C° 0 mm 8 m/S 748 mmHg 63%
10:00 +18°C° 0 mm 8 m/S 748 mmHg 60%
11:00 +20°C° 0 mm 8 m/S 747 mmHg 58%
12:00 +21°C° 0 mm 8 m/S 747 mmHg 57%
13:00 +22°C° 0 mm 8 m/S 747 mmHg 56%
14:00 +22°C° 0 mm 8 m/S 747 mmHg 58%
15:00 +22°C° 0 mm 7 m/S 747 mmHg 60%
16:00 +21°C° 0 mm 7 m/S 747 mmHg 62%
17:00 +20°C° 0 mm 6 m/S 747 mmHg 66%
18:00 +17°C° 0 mm 6 m/S 747 mmHg 69%
19:00 +16°C° 0 mm 5 m/S 747 mmHg 73%
20:00 +15°C° 0 mm 5 m/S 748 mmHg 75%
21:00 +14°C° 0 mm 5 m/S 748 mmHg 76%
22:00 +13°C° 0 mm 6 m/S 748 mmHg 78%
23:00 +11°C° 0 mm 6 m/S 748 mmHg 79%

13 Mai, Donnerstag

Zeit Temperatur Niederschläge Wind Luftdruck Luftfeuchtigkeit
00:00 +10°C° 0 mm 5 m/S 748 mmHg 80%
01:00 +9°C° 0 mm 5 m/S 748 mmHg 82%
02:00 +8°C° 0 mm 5 m/S 748 mmHg 85%
03:00 +8°C° 0 mm 4 m/S 748 mmHg 88%
04:00 +7°C° 0 mm 4 m/S 748 mmHg 92%
05:00 +8°C° 0 mm 4 m/S 748 mmHg 87%
06:00 +10°C° 0 mm 4 m/S 748 mmHg 83%
07:00 +10°C° 0 mm 5 m/S 748 mmHg 79%
08:00 +12°C° 0 mm 5 m/S 748 mmHg 74%
09:00 +13°C° 0 mm 5 m/S 748 mmHg 68%
10:00 +14°C° 0 mm 5 m/S 747 mmHg 63%
11:00 +14°C° 0 mm 5 m/S 747 mmHg 63%
12:00 +14°C° 0 mm 4 m/S 747 mmHg 64%
13:00 +13°C° 0 mm 4 m/S 747 mmHg 65%
14:00 +14°C° 0 mm 3 m/S 747 mmHg 63%
15:00 +14°C° 0 mm 3 m/S 747 mmHg 61%
16:00 +16°C° 0 mm 2 m/S 746 mmHg 59%
17:00 +15°C° 0 mm 2 m/S 746 mmHg 63%
18:00 +14°C° 0 mm 1 m/S 746 mmHg 67%
19:00 +14°C° 0 mm 1 m/S 746 mmHg 72%
20:00 +13°C° 0 mm 2 m/S 746 mmHg 75%
21:00 +13°C° 0 mm 2 m/S 746 mmHg 78%
22:00 +11°C° 0 mm 3 m/S 745 mmHg 81%
23:00 +12°C° 0 mm 2 m/S 745 mmHg 83%
Mehr zeigen

Wir brauchen deine Erlaubnis

Meteoprog und unser Service Anbieter werden persönliche Daten aufbewahren, so wie Cookies, Geräte Bezeichnung oder ähnliche Technologien von deinem Gerät und Prozess, so wie Persönliche Daten Inhalte und Werbungen, genauso wie social Media und den Verkehr zu analysieren.

  • Aufbewahrung und/oder Zugang zu deiner Geräte Informationen.

    Cookies, Geräte Bezeichnung oder andere Informationen, können aufbewahrt oder Zugang zu deinem Gerät erhalten, für den Grund, der oben angegeben wird.

  • Personalisierte Werbung und Inhalte, Messungen, Einblick in das Publikum und Produkt Entwicklung.

    Werbungen und Inhalte können personalisiert werden, basierend auf ein Profil. Mehr Daten können besser personalisierte Werbungen und Inhalte hinzufügen. Werbung und Inhalte können gezeigt und gemessen werden. Einblicke über das Publikum, welche die Werbung gesehen haben und den Inhalt, können abgeleitet werden. So wie Daten können genutzt werden, um es zu verbessern oder die Benutzer Erfahrung zu verbessern das System und die Software.

Wenn du “Ich stimme zu” klickst, erlaubst du uns, die Cookies zu benutzen die Geräte Bezeichnung, den Web oder ähnliche Technologien zu benutzen. Deine Settings, können in deinem Gerät bei deinem Browser geändert werden.

Für den bestimmten Zweck, berechtigten Interessen beruhen darauf, mehr als auf den Inhalt. Du kannst mehr darüber in unseren Privaten und Cookie Politik lesen.